www.pogodaiklimat.ru

Погода и климат >> Архив погоды >> Австралия >> Argyle Aero


ПОГОДА в Argyle Aero

  • Прогноз погоды в Argyle Aero
  • Монитор погоды в Argyle Aero
  • Климат города

АРХИВ ПОГОДЫ в Argyle Aero

Время (UTC), дата Ветер
(напр.,м/с)
 
Видим.   Явления Облачность Т
(С)
Тd
(С)
f
(%)
Тe
(С)
Тes
(С)
Комфортность P
(гПа)
Po
(гПа)
Тmin
(С)
Tmax
(С)
R
(мм)
R24
(мм)
S
(см)
04 17.04 В 5 н/о н/о +37.0 -4.6 7 +33 +33 жарко 1011.5 992.9
06 17.04 В 7 н/о н/о +37.0 -5.8 6 +33 +33 жарко 1009.8 991.3
07 17.04 В 5 н/о н/о +37.0 -2.8 8 +33 +33 жарко 1009.5 991.0
10 17.04 С 2 н/о н/о +30.8 +7.5 23 +30 +30 жарко 1010.5 992.0
12 17.04 З 2 н/о н/о +28.8 +5.9 23 +28 +28 жарко 1012.1 993.5
13 17.04 ЮЗ 2 2000 м н/о +28.3 +6.5 25 +27 +27 жарко 1012.4 993.8 +38.0
15 17.04 ЮВ 2 н/о н/о +26.4 +4.9 25 +26 +26 жарко 1012.3 993.7
16 17.04 З 2 н/о н/о +23.9 +9.5 40 +25 +25 комфорт 1012.1 993.5
18 17.04 З 2 н/о н/о +26.3 +1.7 20 +25 +25 комфорт 1011.6 993.0
19 17.04 штиль 0 н/о н/о +23.3 +7.0 35 +24 +24 комфорт 1011.5 992.9
21 17.04 Ю 3 н/о н/о +23.1 +4.7 30 +23 +23 комфорт 1011.8 993.2
22 17.04 ЮЗ 2 н/о н/о +22.2 +7.7 39 +23 +23 комфорт 1012.4 993.8
00 18.04 ЮВ 3 н/о н/о +29.7 +5.1 21 +28 +28 жарко 1013.7 995.1
01 18.04 В 4 н/о н/о +32.3 +3.9 17 +30 +30 жарко 1013.5 994.9 +21.8
03 18.04 В 4 н/о н/о +35.8 +4.2 14 +33 +33 жарко 1011.0 992.5
04 18.04 В 5 н/о н/о +37.0 +3.3 12 +34 +34 очень
жарко
1009.9 991.4
06 18.04 В 5 н/о н/о +37.4 +4.3 13 +34 +34 очень
жарко
1008.3 989.8
07 18.04 В 5 н/о н/о +37.3 +4.0 13 +34 +34 очень
жарко
1008.1 989.6
10 18.04 СВ 3 н/о 6/0 2000 м
[]
+32.0 +8.8 24 +31 +31 жарко 1009.4 990.9
12 18.04 З 2 н/о н/о +29.6 +10.4 30 +30 +30 жарко 1010.8 992.3
13 18.04 З 2 н/о н/о +28.5 +11.9 36 +30 +30 жарко 1010.9 992.4 +38.0
15 18.04 Ю 1 н/о н/о +26.9 +12.3 40 +28 +28 жарко 1010.6 992.1
16 18.04 В 3 н/о н/о +24.9 +11.6 43 +26 +26 жарко 1010.4 991.9
18 18.04 ЮЗ 2 н/о н/о +25.2 +11.6 43 +27 +27 жарко 1009.8 991.3
19 18.04 Ю 2 н/о 1/0
[]
+25.7 +10.9 39 +27 +27 жарко 1009.8 991.3
21 18.04 штиль 0 н/о н/о +24.7 +13.7 50 +27 +27 жарко 1010.5 992.0
22 18.04 ЮВ 2 н/о 10/0
[]
+23.7 +12.6 50 +26 +26 жарко 1011.2 992.7
00 19.04 Ю 2 н/о н/о +30.3 +16.2 43 +30 +30 жарко 1012.1 993.5
01 19.04 СЗ 2 н/о н/о +32.3 +13.5 32 +33 +33 жарко 1012.2 993.6 +23.6
03 19.04 СВ 5 н/о н/о +35.6 +17.8 35 +39 +39 очень
душно
1010.3 991.8
04 19.04 В 4 н/о н/о +35.7 +17.2 34 +39 +39 очень
душно
1009.2 990.7
06 19.04 СВ 3 н/о н/о +36.9 +17.0 31 +40 +40 очень
душно
1007.8 989.3
07 19.04 С 5 н/о н/о +36.7 +16.1 30 +39 +39 очень
душно
1007.7 989.2
10 19.04 СВ 3 н/о н/о +32.7 +16.7 38 +36 +36 очень
душно
1008.5 990.0
12 19.04 ЮВ 3 н/о н/о +31.2 +17.1 43 +35 +35 очень
душно
1010.4 991.9
13 19.04 В 2 н/о 10/0
[]
+30.1 +18.2 49 +35 +35 очень
душно
1010.6 992.1 +38.2
15 19.04 З 1 н/о н/о +30.2 +18.3 49 +35 +35 очень
душно
1010.6 992.1
16 19.04 З 2 н/о 9/0
[]
+29.7 +18.8 52 +35 +35 очень
душно
1010.1 991.6
18 19.04 штиль 0 н/о н/о +28.7 +20.2 60 +35 +35 очень
душно
1009.9 991.4
19 19.04 СВ 3 н/о 3/0
[]
+27.1 +18.9 61 +32 +32 очень
душно
1010.2 991.7
21 19.04 штиль 0 н/о н/о +27.5 +20.7 66 +34 +34 очень
душно
1011.5 992.9
22 19.04 З 2 н/о 10/0
[]
+26.8 +20.8 70 +34 +34 очень
душно
1012.2 993.6
00 20.04 СЗ 2 н/о н/о +30.8 +23.1 64 +41 +41 опасность
перегрева
1012.8 994.2
01 20.04 Ю 2 н/о 1/1 1000 м
[]
+32.9 +21.6 52 +41 +51 опасность
перегрева
1013.0 994.4 +26.0
03 20.04 ЮВ 3 н/о н/о +33.3 +19.2 43 +38 +38 очень
душно
1011.5 992.9
04 20.04 В 7 н/о туман местами 10/10 600 м
[]
+27.7 +21.8 70 +36 +36 очень
душно
1011.0 992.5
06 20.04 СВ 5 н/о н/о +35.6 +16.8 33 +38 +38 очень
душно
1009.3 990.8
07 20.04 С 4 н/о {туман} н/о +35.5 +18.5 37 +40 +40 очень
душно
1008.8 990.3
10 20.04 Ю 2 н/о 9/0
[]
+32.4 +18.5 44 +37 +37 очень
душно
1010.1 991.6
12 20.04 ЮЗ 2 н/о н/о +31.1 +18.1 46 +36 +36 очень
душно
1011.5 992.9
13 20.04 ЮВ 2 н/о н/о +29.8 +18.5 51 +35 +35 очень
душно
1011.6 993.0 +36.4
15 20.04 штиль 0 н/о н/о +27.9 +19.0 58 +33 +33 очень
душно
1011.8 993.2
16 20.04 Ю 2 н/о н/о +28.1 +18.5 56 +33 +33 очень
душно
1011.8 993.2
18 20.04 штиль 0 н/о н/о +26.5 +18.9 63 +32 +32 очень
душно
1011.3 992.8
19 20.04 штиль 0 н/о н/о +26.3 +18.5 62 +31 +31 душно 1011.3 992.8
21 20.04 ЮВ 2 н/о н/о +25.0 +18.1 66 +29 +29 душно 1011.9 993.3
22 20.04 ЮЗ 2 н/о н/о +24.8 +18.4 68 +29 +29 душно 1012.9 994.3
00 21.04 З 1 н/о н/о +31.4 +16.7 41 +35 +35 очень
душно
1013.4 994.8
01 21.04 СВ 2 н/о н/о +33.8 +13.9 30 +35 +35 очень
жарко
1013.5 994.9 +24.6
03 21.04 В 6 н/о н/о +36.9 +8.2 17 +35 +35 очень
жарко
1011.9 993.3
04 21.04 В 4 н/о 1/0
[]
+38.0 +9.8 18 +36 +48 очень
жарко
1010.7 992.2
06 21.04 В 4 н/о н/о +37.5 +7.6 16 +35 +35 очень
жарко
1008.8 990.3
07 21.04 В 4 н/о н/о +38.2 +5.4 13 +35 +35 очень
жарко
1008.4 989.9
10 21.04 СВ 2 н/о 5/0
[]
+32.8 +12.4 29 +33 +33 жарко 1009.7 991.2
12 21.04 ЮВ 2 н/о н/о +31.4 +10.7 28 +31 +31 жарко 1011.2 992.7
13 21.04 ЮВ 3 н/о н/о +30.4 +8.5 26 +30 +30 жарко 1011.3 992.8 +39.2
15 21.04 З 3 н/о н/о +27.6 +10.0 33 +28 +28 жарко 1011.0 992.5
16 21.04 ЮЗ 2 н/о н/о +28.9 +8.4 28 +28 +28 жарко 1010.5 992.0
18 21.04 штиль 0 н/о н/о +26.7 +10.2 36 +27 +27 жарко 1010.5 992.0
19 21.04 штиль 0 н/о н/о +26.0 +10.1 37 +27 +27 жарко 1010.5 992.0
21 21.04 В 2 н/о н/о +23.8 +11.0 45 +25 +25 комфорт 1011.7 993.1
22 21.04 СВ 3 н/о н/о +24.5 +10.6 42 +26 +26 жарко 1012.4 993.8
00 22.04 В 3 н/о н/о +30.6 +10.1 28 +30 +30 жарко 1013.2 994.6
01 22.04 ЮВ 2 н/о н/о +32.9 +12.1 28 +33 +33 жарко 1013.1 994.5 +23.8
03 22.04 В 4 н/о н/о +35.3 +12.7 26 +36 +36 очень
жарко
1011.5 992.9
04 22.04 В 6 н/о ясно +37.0 +9.3 19 +36 +42 очень
жарко
1010.2 991.7
06 22.04 В 4 н/о н/о +38.2 +8.1 16 +36 +36 очень
жарко
1008.5 990.0
07 22.04 В 5 н/о н/о +38.0 +6.4 14 +35 +35 очень
жарко
1008.2 989.7
10 22.04 ЮВ 2 н/о н/о +32.3 +11.4 28 +32 +32 жарко 1009.8 991.3
12 22.04 ЮВ 3 н/о н/о +30.5 +8.7 26 +30 +30 жарко 1011.3 992.8
13 22.04 ЮВ 3 н/о н/о +28.6 +8.5 28 +28 +28 жарко 1011.5 992.9 +38.4
15 22.04 В 3 н/о н/о +27.6 +8.2 29 +27 +27 жарко 1010.9 992.4
16 22.04 З 2 н/о н/о +25.3 +8.3 34 +26 +26 жарко 1010.6 992.1
18 22.04 С 2 н/о н/о +25.7 +7.0 30 +26 +26 жарко 1010.4 991.9
19 22.04 ЮВ 1 н/о н/о +25.7 +7.6 32 +26 +26 жарко 1010.5 992.0
21 22.04 ЮВ 3 н/о н/о +24.9 +6.8 31 +25 +25 комфорт 1012.0 993.4
22 22.04 ЮЗ 2 н/о н/о +23.8 +8.6 38 +24 +24 комфорт 1012.5 993.9
00 23.04 В 3 н/о н/о +30.3 +6.8 23 +29 +29 жарко 1013.5 994.9
01 23.04 В 5 н/о н/о +32.4 +6.8 20 +31 +31 жарко 1013.5 994.9 +23.8
03 23.04 ЮВ 5 н/о н/о +36.0 +10.0 21 +35 +35 очень
жарко
1011.6 993.0
04 23.04 ЮВ 5 н/о н/о +37.0 +7.8 17 +35 +35 очень
жарко
1010.4 991.9
06 23.04 В 4 н/о н/о +37.1 +6.8 16 +35 +35 очень
жарко
1008.6 990.1
07 23.04 В 5 н/о н/о +37.4 +2.3 11 +34 +34 очень
жарко
1008.3 989.8
10 23.04 ЮВ 2 н/о н/о +31.4 +4.5 18 +29 +29 жарко 1009.9 991.4
12 23.04 В 3 н/о н/о +28.1 +4.6 22 +27 +27 жарко 1011.1 992.6
13 23.04 В 3 н/о н/о +27.7 +5.1 24 +27 +27 жарко 1011.2 992.7 +37.8
15 23.04 Ю 1 н/о н/о +24.7 +5.3 29 +24 +24 комфорт 1011.2 992.7
16 23.04 штиль 0 н/о н/о +24.7 +6.2 30 +25 +25 комфорт 1010.8 992.3
18 23.04 ЮЗ 2 н/о н/о +24.1 +3.6 26 +23 +23 комфорт 1010.5 992.0
19 23.04 штиль 0 н/о н/о +23.2 +5.7 32 +24 +24 комфорт 1010.8 992.3
21 23.04 штиль 0 н/о н/о +22.8 +6.8 36 +24 +24 комфорт 1011.7 993.1
22 23.04 С 2 н/о н/о +22.5 +7.7 39 +24 +24 комфорт 1012.3 993.7
00 24.04 В 3 н/о н/о +29.4 +1.2 16 +27 +27 жарко 1013.7 995.1
01 24.04 В 4 н/о н/о +31.7 +2.6 16 +29 +29 жарко 1013.5 994.9 +22.4
03 24.04 В 5 н/о н/о +35.2 +1.1 12 +32 +32 жарко 1011.5 992.9
04 24.04 В 4 н/о н/о +36.1 +2.6 12 +33 +33 жарко 1010.1 991.6

 

Местоположение метеостанции Argyle Aero (Западная Австралия, Австралия): широта -16.63 долгота 128.45 высота над уровнем моря 165 м.

В архиве по умолчанию представлена погода в Argyle Aero за последнюю неделю. Архивные данные за месяц целиком и за предыдущие месяцы, начиная с января 2011 года, Вы можете получить, выбрав интересующий диапазон дат из раскрывающегося списка и нажав кнопку "Ввод!".


*Определитесь, кто Вы:
робот инопланетянин человек

Внимание! Время в таблицах - всемирное. Для получения местного времени необходимо прибавить поправку, которая в Argyle Aero равна 8 ч.

Смотрите также архив погоды в соседних городах и на ближайших метеорологических станциях:

Погода в Kununurra (Западная Австралия, Австралия) (99 км)
Погода в Wyndham Aero (Западная Австралия, Австралия) (130 км)
Погода в Halls Creek Airport (Западная Австралия, Австралия) (197 км)
Погода в Victoria River Downs (Северная территория, Австралия) (275 км)
Погода в Port Keats Aero (Северная территория, Австралия) (289 км)
Погода в Lajamanu (Северная территория, Австралия) (299 км)
Погода в Manbulloo Csiro (Северная территория, Австралия) (313 км)
Погода в Kalumburu (Западная Австралия, Австралия) (323 км)
Погода в Fitzroy Crossing Aero (Западная Австралия, Австралия) (352 км)
Погода в Truscott (Западная Австралия, Австралия) (360 км)

Пояснения к столбцам:

Ветер - указаны скорость ветра в м/с - средняя за 10 мин, порывы в срок и между сроками (в фигурных скобках) и направление, откуда дует ветер: С - северный, СВ - северо-восточный, В - восточный, ЮВ - юго-восточный, Ю - южный, ЮЗ - юго-западный, З - западный, СЗ - северо-западный.
Видимость - горизонтальная дальность видимости в метрах или километрах. При видимости от 1 до 10 км при отсутствии осадков обычно наблюдается дымка, при ухудшении видимости до 1 км и менее - туман. В сухую погоду видимость может ухудшаться дымом, пылью или мглою.
Явления - указаны атмосферные явления, наблюдавшиеся в срок или в последний час перед сроком; фигурными скобками обозначены явления, наблюдавшиеся между сроками (за 1-3 часа до срока); квадратными скобками обозначены град или гололедные отложения с указанием их диаметра в мм.
Облачность - указаны через наклонную черту общая и нижняя облачность в баллах и высота нижней границы облаков в метрах; квадратными скобками обозначены формы облаков: Ci - перистые, Cs - перисто-слоистые, Cc - перисто-кучевые, Ac - высококучевые, As - высокослоистые, Sc - слоисто-кучевые, Ns - слоисто-дождевые, Cu - кучевые, Cb - кучево-дождевые. Подробнее классификацию облаков см. в Атласе облаков (PDF).
T - Температура воздуха - температура, измеренная на высоте 2 м над землей.
Td - Температура точки росы - температура, при понижении до которой содержащийся в воздухе водяной пар достигнет насыщения.
f - Относительная влажность воздуха - влажноcть воздуха, измеренная на высоте 2 м над землей.
Te - Эффективная температура - температура, которую ощущает одетый по сезону человек в тени. Характеристика душности погоды. При расчете учитывается влияние влажности воздуха и скорости ветра на теплоощущения человека.
Tes - Эффективная температура на солнце - температура, которую ощущает человек, с поправкой на солнечный нагрев. Характеристика знойности погоды. Зависит от высоты солнца над горизонтом, облачности и скорости ветра. Ночью, в пасмурную погоду, а также при ветре 12 м/с и более поправка равна нулю.
P - Атмосферное давление - приведенное к уровню моря атмосферное давление.
Po - Атмосферное давление - измеренное на уровне метеостанции атмосферное давление.
Tmin - Минимальная температура - минимум температуры воздуха на высоте 2 м над землей.
Tmax - Максимальная температура - максимум температуры воздуха на высоте 2 м над землей.
R - Количество осадков - Количество выпавших осадков за период времени, мм. При наведении курсора мыши на число - период времени, за который выпало указанное количество осадков.
R24 - Количество осадков - Количество выпавших осадков за 24 часа, мм.
S - Снежный покров - Высота снежного покрова, см. При наведении курсора мыши на число - состояние снежного покрова и степень покрытия местности в баллах.